SLI851 MMMX-MMUN

Flight info

Callsign SLI851
Flight time N/A
Altitude 37000
Route UKUNO3A UKUNO UT108 VER UJ24 GOTAS UT65 PAULE PAULE2G
Aircraft E190/M-SDE3GILORVW/S

Departure

Time 2026-05-08 08:22
Airport Mexico City Benito Juárez International Airport (MMMX)

Arrival

Time N/A
Airport Cancún International Airport (MMUN)
Time Latitude Longitude Altitude Speed Heading
2026-05-08 08:16 19.42429 -99.08357 7301 ft 11 kts 292°
2026-05-08 08:16 19.42458 -99.08432 7301 ft 11 kts 290°
2026-05-08 08:17 19.42485 -99.08502 7301 ft 10 kts 290°
2026-05-08 08:17 19.42503 -99.08573 7301 ft 9 kts 283°
2026-05-08 08:17 19.42523 -99.08635 7301 ft 9 kts 292°
2026-05-08 08:17 19.42551 -99.08708 7302 ft 13 kts 292°
2026-05-08 08:18 19.42591 -99.08807 7301 ft 16 kts 293°
2026-05-08 08:18 19.42637 -99.08924 7301 ft 17 kts 292°
2026-05-08 08:18 19.42658 -99.08978 7301 ft 0 kts 292°
2026-05-08 08:19 19.42659 -99.08979 7301 ft 0 kts 292°
2026-05-08 08:20 19.42661 -99.08985 7301 ft 2 kts 292°
2026-05-08 08:20 19.42670 -99.09006 7301 ft 5 kts 292°
2026-05-08 08:20 19.42690 -99.09047 7301 ft 8 kts 312°
2026-05-08 08:20 19.42752 -99.09054 7301 ft 10 kts 27°
2026-05-08 08:21 19.42788 -99.08998 7301 ft 9 kts 60°
2026-05-08 08:21 19.42821 -99.08938 7302 ft 13 kts 58°
2026-05-08 08:21 19.42967 -99.08679 7300 ft 69 kts 59°
2026-05-08 08:21 19.43310 -99.08068 7302 ft 121 kts 59°
2026-05-08 08:22 19.43822 -99.07157 7302 ft 165 kts 58°
2026-05-08 08:22 19.44459 -99.06033 7519 ft 190 kts 59°
2026-05-08 08:22 19.45150 -99.04778 8220 ft 207 kts 60°
2026-05-08 08:22 19.45954 -99.03332 8362 ft 249 kts 59°
2026-05-08 08:23 19.46880 -99.01692 9029 ft 261 kts 59°
2026-05-08 08:23 19.47824 -99.00025 9846 ft 266 kts 60°
2026-05-08 08:23 19.48792 -98.98305 10624 ft 279 kts 61°
2026-05-08 08:23 19.49814 -98.96487 11188 ft 295 kts 60°
2026-05-08 08:24 19.50889 -98.94567 11822 ft 308 kts 60°
2026-05-08 08:24 19.51996 -98.92594 12639 ft 313 kts 59°
2026-05-08 08:24 19.53083 -98.90602 13461 ft 318 kts 64°
2026-05-08 08:24 19.53847 -98.88386 14313 ft 322 kts 73°
2026-05-08 08:25 19.54440 -98.86077 15120 ft 325 kts 75°
2026-05-08 08:25 19.55028 -98.83750 15935 ft 328 kts 75°
2026-05-08 08:25 19.55634 -98.81394 16739 ft 332 kts 75°
2026-05-08 08:25 19.56249 -98.79023 17503 ft 336 kts 76°
2026-05-08 08:26 19.56865 -98.76656 18244 ft 339 kts 76°
2026-05-08 08:26 19.57480 -98.74224 18869 ft 343 kts 79°
2026-05-08 08:26 19.57626 -98.71638 19005 ft 359 kts 100°
2026-05-08 08:26 19.57135 -98.68994 19297 ft 371 kts 104°
2026-05-08 08:27 19.56565 -98.66302 19868 ft 375 kts 104°
2026-05-08 08:27 19.56009 -98.63584 20481 ft 379 kts 104°
2026-05-08 08:27 19.55454 -98.60838 21095 ft 382 kts 104°
2026-05-08 08:27 19.54894 -98.58073 21681 ft 385 kts 104°
2026-05-08 08:28 19.54712 -98.57172 21874 ft 386 kts 105°
2026-05-08 08:28 19.54150 -98.54409 22417 ft 390 kts 105°
2026-05-08 08:28 19.53570 -98.51581 22982 ft 394 kts 105°
2026-05-08 08:28 19.52985 -98.48731 23517 ft 397 kts 105°
2026-05-08 08:29 19.52394 -98.45859 23992 ft 400 kts 105°
2026-05-08 08:29 19.51795 -98.42961 24421 ft 403 kts 105°
2026-05-08 08:29 19.51192 -98.40060 24950 ft 400 kts 105°
2026-05-08 08:29 19.50603 -98.37217 25493 ft 400 kts 105°
2026-05-08 08:30 19.50017 -98.34322 25875 ft 404 kts 105°
2026-05-08 08:30 19.49431 -98.31395 26228 ft 408 kts 105°
2026-05-08 08:30 19.48236 -98.25441 26867 ft 417 kts 105°
2026-05-08 08:31 19.47625 -98.22408 27168 ft 422 kts 105°
2026-05-08 08:31 19.47006 -98.19341 27466 ft 426 kts 105°
2026-05-08 08:31 19.46391 -98.16299 27805 ft 429 kts 105°
2026-05-08 08:31 19.45764 -98.13197 28171 ft 432 kts 105°
2026-05-08 08:32 19.45131 -98.10076 28518 ft 434 kts 105°
2026-05-08 08:32 19.44497 -98.06945 28871 ft 436 kts 105°
2026-05-08 08:32 19.43862 -98.03810 29238 ft 437 kts 105°
2026-05-08 08:32 19.43308 -98.00661 29823 ft 432 kts 100°
2026-05-08 08:33 19.42974 -97.97481 30165 ft 434 kts 98°
2026-05-08 08:33 19.42676 -97.94296 30443 ft 436 kts 98°
2026-05-08 08:33 19.42373 -97.91089 30655 ft 439 kts 98°
2026-05-08 08:33 19.42063 -97.87855 30796 ft 444 kts 98°
2026-05-08 08:34 19.41747 -97.84575 30899 ft 450 kts 98°
2026-05-08 08:34 19.41427 -97.81254 30971 ft 456 kts 98°
2026-05-08 08:34 19.41101 -97.77898 31125 ft 460 kts 98°
2026-05-08 08:34 19.40773 -97.74513 31306 ft 463 kts 98°
2026-05-08 08:35 19.40440 -97.71108 31515 ft 465 kts 98°
2026-05-08 08:35 19.40108 -97.67694 31789 ft 466 kts 98°
2026-05-08 08:35 19.39775 -97.64285 32097 ft 465 kts 98°
2026-05-08 08:35 19.39446 -97.60917 32375 ft 465 kts 98°
2026-05-08 08:36 19.39111 -97.57507 32676 ft 465 kts 98°
2026-05-08 08:36 19.38775 -97.54097 32988 ft 465 kts 97°
2026-05-08 08:36 19.38438 -97.50690 33303 ft 465 kts 97°
2026-05-08 08:36 19.38102 -97.47286 33584 ft 465 kts 97°
2026-05-08 08:37 19.37765 -97.43878 33850 ft 465 kts 97°
2026-05-08 08:37 19.37425 -97.40456 34121 ft 465 kts 97°
2026-05-08 08:37 19.37086 -97.37048 34372 ft 465 kts 97°
2026-05-08 08:37 19.36863 -97.34809 34549 ft 464 kts 97°
2026-05-08 08:38 19.36523 -97.31397 34814 ft 462 kts 97°
2026-05-08 08:38 19.36186 -97.28013 35065 ft 462 kts 97°
2026-05-08 08:38 19.35848 -97.24637 35311 ft 461 kts 97°
2026-05-08 08:38 19.35402 -97.20180 35623 ft 460 kts 97°
2026-05-08 08:39 19.35064 -97.16808 35820 ft 460 kts 97°
2026-05-08 08:39 19.34835 -97.14540 35988 ft 459 kts 97°
2026-05-08 08:39 19.34501 -97.11224 36241 ft 457 kts 98°
2026-05-08 08:39 19.34162 -97.07873 36473 ft 456 kts 97°
2026-05-08 08:40 19.33781 -97.04535 36672 ft 455 kts 103°
2026-05-08 08:40 19.33118 -97.01260 36871 ft 453 kts 105°
2026-05-08 08:40 19.32390 -96.98058 37191 ft 445 kts 105°
2026-05-08 08:40 19.31653 -96.94859 37138 ft 449 kts 105°
2026-05-08 08:41 19.30169 -96.88352 36949 ft 461 kts 105°
2026-05-08 08:41 19.28674 -96.81747 36952 ft 467 kts 105°
2026-05-08 08:42 19.27145 -96.75006 36924 ft 473 kts 105°
2026-05-08 08:42 19.25610 -96.68236 36901 ft 473 kts 105°
2026-05-08 08:43 19.24067 -96.61443 36888 ft 474 kts 105°
2026-05-08 08:43 19.22536 -96.54717 36897 ft 474 kts 105°
2026-05-08 08:44 19.20978 -96.47884 36880 ft 473 kts 105°
2026-05-08 08:44 19.19442 -96.41165 36879 ft 473 kts 105°
2026-05-08 08:45 19.17891 -96.34389 36874 ft 473 kts 105°
2026-05-08 08:45 19.16341 -96.27630 36870 ft 472 kts 105°
2026-05-08 08:46 19.14803 -96.20877 36865 ft 473 kts 102°
2026-05-08 08:46 19.14561 -96.17406 36871 ft 475 kts 86°
2026-05-08 08:46 19.14926 -96.13927 36908 ft 477 kts 83°
2026-05-08 08:47 19.15920 -96.07037 36846 ft 476 kts 82°
2026-05-08 08:47 19.16888 -96.00111 36856 ft 476 kts 83°
2026-05-08 08:48 19.17835 -95.93166 36856 ft 476 kts 83°
2026-05-08 08:48 19.18775 -95.86225 36852 ft 476 kts 83°
2026-05-08 08:49 19.19713 -95.79274 36856 ft 477 kts 83°
2026-05-08 08:49 19.20648 -95.72325 36853 ft 477 kts 83°
2026-05-08 08:50 19.21575 -95.65426 36859 ft 477 kts 83°
2026-05-08 08:50 19.22507 -95.58464 36858 ft 477 kts 83°
2026-05-08 08:51 19.23436 -95.51498 36857 ft 477 kts 83°
2026-05-08 08:51 19.24362 -95.44542 36859 ft 477 kts 83°
2026-05-08 08:52 19.25279 -95.37633 36855 ft 477 kts 83°
2026-05-08 08:52 19.26202 -95.30661 36855 ft 477 kts 83°
2026-05-08 08:53 19.27119 -95.23705 36854 ft 477 kts 83°
2026-05-08 08:53 19.28037 -95.16729 36855 ft 477 kts 83°
2026-05-08 08:54 19.28950 -95.09761 36856 ft 477 kts 83°
2026-05-08 08:54 19.29433 -95.02816 36877 ft 476 kts 92°
2026-05-08 08:55 19.29219 -94.95811 36848 ft 476 kts 93°
2026-05-08 08:55 19.29016 -94.88792 36851 ft 476 kts 93°
2026-05-08 08:56 19.28818 -94.81788 36854 ft 476 kts 93°
2026-05-08 08:56 19.28621 -94.74782 36853 ft 476 kts 93°
2026-05-08 08:57 19.28422 -94.67772 36853 ft 476 kts 93°
2026-05-08 08:57 19.28222 -94.60803 36856 ft 476 kts 93°
2026-05-08 08:58 19.28018 -94.53791 36858 ft 476 kts 93°
2026-05-08 08:58 19.27812 -94.46781 36859 ft 476 kts 92°
2026-05-08 08:59 19.27603 -94.39768 36858 ft 476 kts 92°
2026-05-08 08:59 19.27391 -94.32757 36857 ft 476 kts 92°
2026-05-08 09:00 19.27176 -94.25753 36858 ft 476 kts 92°
2026-05-08 09:00 19.26959 -94.18735 36857 ft 476 kts 92°
2026-05-08 09:01 19.26741 -94.11771 36856 ft 476 kts 92°
2026-05-08 09:01 19.26519 -94.04769 36854 ft 475 kts 93°
2026-05-08 09:02 19.26294 -93.97773 36855 ft 475 kts 93°
2026-05-08 09:02 19.26067 -93.90784 36858 ft 475 kts 93°
2026-05-08 09:03 19.25837 -93.83801 36854 ft 474 kts 93°
2026-05-08 09:03 19.25606 -93.76857 36853 ft 474 kts 93°
2026-05-08 09:04 19.25371 -93.69888 36859 ft 474 kts 93°
2026-05-08 09:04 19.25135 -93.62922 36861 ft 473 kts 93°
2026-05-08 09:05 19.24895 -93.55963 36849 ft 472 kts 93°
2026-05-08 09:05 19.24653 -93.49013 36849 ft 472 kts 93°
2026-05-08 09:06 19.24411 -93.42118 36847 ft 472 kts 93°
2026-05-08 09:06 19.24164 -93.35183 36845 ft 472 kts 93°
2026-05-08 09:07 19.23914 -93.28227 36845 ft 471 kts 93°
2026-05-08 09:07 19.23663 -93.21288 36844 ft 472 kts 93°
2026-05-08 09:08 19.23410 -93.14388 36846 ft 472 kts 93°
2026-05-08 09:08 19.23153 -93.07452 36846 ft 471 kts 93°
2026-05-08 09:09 19.22893 -93.00508 36845 ft 471 kts 94°
2026-05-08 09:09 19.22631 -92.93568 36844 ft 472 kts 94°
2026-05-08 09:10 19.22367 -92.86636 36843 ft 471 kts 93°
2026-05-08 09:10 19.22101 -92.79742 36845 ft 471 kts 93°
2026-05-08 09:11 19.21830 -92.72814 36844 ft 471 kts 94°
2026-05-08 09:11 19.21667 -92.65886 36850 ft 471 kts 89°
2026-05-08 09:12 19.21906 -92.58946 36844 ft 471 kts 89°
2026-05-08 09:12 19.22096 -92.52009 36845 ft 471 kts 89°
2026-05-08 09:13 19.22267 -92.45070 36843 ft 472 kts 89°
2026-05-08 09:13 19.22428 -92.38158 36845 ft 472 kts 89°
2026-05-08 09:14 19.22586 -92.31206 36843 ft 473 kts 89°
2026-05-08 09:14 19.22740 -92.24239 36845 ft 473 kts 89°
2026-05-08 09:15 19.22893 -92.17311 36846 ft 474 kts 89°
2026-05-08 09:15 19.23043 -92.10341 36850 ft 474 kts 89°
2026-05-08 09:16 19.23188 -92.03365 36849 ft 474 kts 89°
2026-05-08 09:16 19.23333 -91.96386 36850 ft 473 kts 89°
2026-05-08 09:17 19.23474 -91.89457 36853 ft 473 kts 89°
2026-05-08 09:17 19.23612 -91.82491 36854 ft 473 kts 89°
2026-05-08 09:18 19.23749 -91.75521 36856 ft 473 kts 89°
2026-05-08 09:18 19.23881 -91.68558 36857 ft 473 kts 89°
2026-05-08 09:19 19.24013 -91.61600 36858 ft 473 kts 89°
2026-05-08 09:19 19.24141 -91.54639 36861 ft 473 kts 89°
2026-05-08 09:20 19.24265 -91.47727 36860 ft 473 kts 89°
2026-05-08 09:20 19.24388 -91.40770 36866 ft 473 kts 89°
2026-05-08 09:21 19.24509 -91.33816 36868 ft 472 kts 89°
2026-05-08 09:23 19.24907 -91.09468 36869 ft 473 kts 89°
2026-05-08 09:23 19.25015 -91.02544 36869 ft 473 kts 89°
2026-05-08 09:24 19.25120 -90.95586 36868 ft 473 kts 89°
2026-05-08 09:24 19.25222 -90.88615 36875 ft 473 kts 89°
2026-05-08 09:25 19.25323 -90.81651 36874 ft 473 kts 89°
2026-05-08 09:25 19.25422 -90.74680 36874 ft 473 kts 89°
2026-05-08 09:26 19.25516 -90.67710 36881 ft 474 kts 89°
2026-05-08 09:26 19.25608 -90.60783 36879 ft 473 kts 89°
2026-05-08 09:27 19.25698 -90.53810 36884 ft 473 kts 89°
2026-05-08 09:27 19.25771 -90.48014 36886 ft 472 kts 89°
2026-05-08 09:28 19.25857 -90.41058 36890 ft 472 kts 89°
2026-05-08 09:28 19.25939 -90.34106 36887 ft 472 kts 89°
2026-05-08 09:29 19.25861 -90.27148 36893 ft 472 kts 91°
2026-05-08 09:29 19.25676 -90.20248 36892 ft 472 kts 91°
2026-05-08 09:30 19.25520 -90.13298 36899 ft 472 kts 91°
2026-05-08 09:30 19.25369 -90.06355 36898 ft 472 kts 91°
2026-05-08 09:31 19.25216 -89.99410 36903 ft 472 kts 91°
2026-05-08 09:31 19.25060 -89.92457 36907 ft 471 kts 91°
2026-05-08 09:32 19.24903 -89.85516 36907 ft 471 kts 91°
2026-05-08 09:32 19.24742 -89.78620 36912 ft 471 kts 91°
2026-05-08 09:33 19.24578 -89.71694 36917 ft 471 kts 91°
2026-05-08 09:33 19.24412 -89.64759 36915 ft 470 kts 91°
2026-05-08 09:34 19.24244 -89.57835 36917 ft 470 kts 91°
2026-05-08 09:34 19.24563 -89.50988 36934 ft 468 kts 76°
2026-05-08 09:35 19.26345 -89.44350 36898 ft 469 kts 72°
2026-05-08 09:35 19.28212 -89.37757 36921 ft 467 kts 72°
2026-05-08 09:36 19.30052 -89.31145 36921 ft 468 kts 73°
2026-05-08 09:36 19.31867 -89.24583 36927 ft 467 kts 73°
2026-05-08 09:37 19.33690 -89.17982 36918 ft 467 kts 73°
2026-05-08 09:37 19.35513 -89.11370 36924 ft 467 kts 73°
2026-05-08 09:38 19.37336 -89.04748 36922 ft 467 kts 73°
2026-05-08 09:38 19.39150 -88.98144 36926 ft 468 kts 73°
2026-05-08 09:39 19.40969 -88.91514 36925 ft 468 kts 73°
2026-05-08 09:39 19.42772 -88.84932 36927 ft 468 kts 73°
2026-05-08 09:40 19.44582 -88.78313 36928 ft 468 kts 73°
2026-05-08 09:40 19.46392 -88.71685 36928 ft 468 kts 73°
2026-05-08 09:41 19.48201 -88.65048 36928 ft 468 kts 73°
2026-05-08 09:41 19.50005 -88.58421 36928 ft 468 kts 73°
2026-05-08 09:42 19.51810 -88.51782 36928 ft 468 kts 73°
2026-05-08 09:42 19.53599 -88.45190 36928 ft 468 kts 73°
2026-05-08 09:43 19.55397 -88.38550 36928 ft 468 kts 73°
2026-05-08 09:43 19.57194 -88.31911 36929 ft 468 kts 73°
2026-05-08 09:44 19.58988 -88.25265 36929 ft 468 kts 73°
2026-05-08 09:44 19.60781 -88.18616 36929 ft 468 kts 73°
2026-05-08 09:45 19.62573 -88.11960 36542 ft 466 kts 73°
2026-05-08 09:45 19.63442 -88.08725 36276 ft 447 kts 73°
2026-05-08 09:45 19.64298 -88.05539 35651 ft 453 kts 73°
2026-05-08 09:45 19.65165 -88.02314 35097 ft 454 kts 73°
2026-05-08 09:46 19.66032 -87.99085 34438 ft 457 kts 73°
2026-05-08 09:46 19.66903 -87.95837 33840 ft 458 kts 73°
2026-05-08 09:46 19.67765 -87.92620 33233 ft 458 kts 73°
2026-05-08 09:46 19.68637 -87.89362 32618 ft 459 kts 74°
2026-05-08 09:47 19.69512 -87.86091 32042 ft 460 kts 74°
2026-05-08 09:47 19.70386 -87.82821 31393 ft 462 kts 74°
2026-05-08 09:47 19.71262 -87.79541 30806 ft 461 kts 74°
2026-05-08 09:47 19.72138 -87.76258 30180 ft 463 kts 74°
2026-05-08 09:48 19.73015 -87.72969 29534 ft 461 kts 74°
2026-05-08 09:48 19.73872 -87.69753 28978 ft 457 kts 75°
2026-05-08 09:48 19.74735 -87.66512 28384 ft 454 kts 75°
2026-05-08 09:48 19.75591 -87.63297 27763 ft 451 kts 75°
2026-05-08 09:49 19.76438 -87.60112 27203 ft 446 kts 75°
2026-05-08 09:49 19.77275 -87.56960 26597 ft 442 kts 75°
2026-05-08 09:49 19.77556 -87.55900 26408 ft 440 kts 75°
2026-05-08 09:49 19.78514 -87.52299 25744 ft 435 kts 75°
2026-05-08 09:50 19.79329 -87.49223 25179 ft 431 kts 76°
2026-05-08 09:50 19.80136 -87.46179 24630 ft 427 kts 76°
2026-05-08 09:50 19.80937 -87.43157 24127 ft 420 kts 76°
2026-05-08 09:50 19.82005 -87.40323 24026 ft 409 kts 60°
2026-05-08 09:51 19.83603 -87.37799 23977 ft 416 kts 55°
2026-05-08 09:51 19.85312 -87.35353 23925 ft 417 kts 54°
2026-05-08 09:51 19.87056 -87.32874 23937 ft 420 kts 54°
2026-05-08 09:51 19.88796 -87.30377 23936 ft 420 kts 54°
2026-05-08 09:52 19.90531 -87.27874 23939 ft 421 kts 55°
2026-05-08 09:52 19.92268 -87.25365 23937 ft 421 kts 55°
2026-05-08 09:52 19.94006 -87.22854 23938 ft 421 kts 54°
2026-05-08 09:52 19.95736 -87.20350 23935 ft 420 kts 55°
2026-05-08 09:53 19.97462 -87.17848 23940 ft 420 kts 55°
2026-05-08 09:53 19.99194 -87.15338 23940 ft 420 kts 55°
2026-05-08 09:53 20.00923 -87.12832 23940 ft 420 kts 55°
2026-05-08 09:53 20.02650 -87.10326 23939 ft 420 kts 55°
2026-05-08 09:54 20.04375 -87.07818 23939 ft 420 kts 55°
2026-05-08 09:54 20.06105 -87.05309 23940 ft 420 kts 55°
2026-05-08 09:54 20.07839 -87.02790 23944 ft 421 kts 55°
2026-05-08 09:54 20.09565 -87.00278 23940 ft 421 kts 55°
2026-05-08 09:55 20.11294 -86.97765 23946 ft 421 kts 55°
2026-05-08 09:55 20.12980 -86.95312 23944 ft 420 kts 55°
2026-05-08 09:55 20.14673 -86.92848 23944 ft 420 kts 55°
2026-05-08 09:55 20.16399 -86.90332 23944 ft 420 kts 54°
2026-05-08 09:56 20.18126 -86.87813 23944 ft 420 kts 54°
2026-05-08 09:56 20.19852 -86.85300 23945 ft 421 kts 54°
2026-05-08 09:56 20.21583 -86.82779 23812 ft 423 kts 54°
2026-05-08 09:56 20.23316 -86.80259 23644 ft 418 kts 54°
2026-05-08 09:57 20.26747 -86.75308 22992 ft 414 kts 54°
2026-05-08 09:57 20.28452 -86.72844 22658 ft 409 kts 54°
2026-05-08 09:57 20.30136 -86.70403 22335 ft 406 kts 54°
2026-05-08 09:58 20.31803 -86.67988 22012 ft 403 kts 54°
2026-05-08 09:58 20.33446 -86.65609 21674 ft 392 kts 54°
2026-05-08 09:58 20.35036 -86.63309 21368 ft 379 kts 54°
2026-05-08 09:58 20.36587 -86.61098 20871 ft 363 kts 50°
2026-05-08 09:59 20.38530 -86.59510 20461 ft 346 kts 24°
2026-05-08 09:59 20.40818 -86.59012 20074 ft 344 kts 358°
2026-05-08 09:59 20.43185 -86.59545 19727 ft 354 kts 343°
2026-05-08 09:59 20.45536 -86.60359 19201 ft 355 kts 344°
2026-05-08 10:00 20.47893 -86.61089 18687 ft 349 kts 346°
2026-05-08 10:00 20.50231 -86.61766 18229 ft 348 kts 346°
2026-05-08 10:00 20.52538 -86.62428 17727 ft 340 kts 347°
2026-05-08 10:00 20.54813 -86.63081 17332 ft 339 kts 347°
2026-05-08 10:01 20.57090 -86.63731 16848 ft 339 kts 347°
2026-05-08 10:01 20.59355 -86.64382 16416 ft 335 kts 347°
2026-05-08 10:01 20.61600 -86.65028 16037 ft 334 kts 347°
2026-05-08 10:01 20.63843 -86.65671 15574 ft 332 kts 347°
2026-05-08 10:02 20.65945 -86.66275 15170 ft 330 kts 347°
2026-05-08 10:02 20.68133 -86.66905 14731 ft 328 kts 347°
2026-05-08 10:02 20.70326 -86.67536 14300 ft 325 kts 347°
2026-05-08 10:02 20.72512 -86.68165 13871 ft 323 kts 347°
2026-05-08 10:03 20.74683 -86.68791 13420 ft 321 kts 347°
2026-05-08 10:03 20.76823 -86.69406 13017 ft 313 kts 347°
2026-05-08 10:03 20.78882 -86.70002 12581 ft 299 kts 347°
2026-05-08 10:03 20.80839 -86.70568 12202 ft 285 kts 347°
2026-05-08 10:04 20.82652 -86.71311 11819 ft 278 kts 325°
2026-05-08 10:04 20.83950 -86.72813 11527 ft 276 kts 305°
2026-05-08 10:04 20.84992 -86.74554 11179 ft 281 kts 302°
2026-05-08 10:04 20.86023 -86.76331 10773 ft 281 kts 302°
2026-05-08 10:05 20.87075 -86.78080 10367 ft 278 kts 303°
2026-05-08 10:05 20.88123 -86.79777 10000 ft 275 kts 303°
2026-05-08 10:05 20.89175 -86.81462 9621 ft 271 kts 303°
2026-05-08 10:05 20.90223 -86.83134 9299 ft 269 kts 303°
2026-05-08 10:06 20.91271 -86.84794 8935 ft 269 kts 303°
2026-05-08 10:06 20.92317 -86.86452 8558 ft 267 kts 303°
2026-05-08 10:06 20.93355 -86.88092 8219 ft 266 kts 303°
2026-05-08 10:06 20.94391 -86.89730 7866 ft 265 kts 303°
2026-05-08 10:07 20.95417 -86.91370 7518 ft 265 kts 303°
2026-05-08 10:07 20.96438 -86.93002 7172 ft 264 kts 303°
2026-05-08 10:07 20.97456 -86.94631 6820 ft 263 kts 302°
2026-05-08 10:07 20.98470 -86.96255 6465 ft 262 kts 303°
2026-05-08 10:08 20.99481 -86.97871 6109 ft 261 kts 303°
2026-05-08 10:08 21.00483 -86.99475 5719 ft 261 kts 302°
2026-05-08 10:08 21.01480 -87.01070 5418 ft 259 kts 303°
2026-05-08 10:08 21.02484 -87.02675 5098 ft 260 kts 303°
2026-05-08 10:09 21.03492 -87.04287 4731 ft 261 kts 303°
2026-05-08 10:09 21.04455 -87.05826 4399 ft 258 kts 303°
2026-05-08 10:09 21.05451 -87.07417 4076 ft 257 kts 303°
2026-05-08 10:09 21.06359 -87.08873 3754 ft 257 kts 303°
2026-05-08 10:10 21.07347 -87.10456 3397 ft 250 kts 303°
2026-05-08 10:10 21.08273 -87.11936 3171 ft 237 kts 303°
2026-05-08 10:10 21.09188 -87.13399 3037 ft 228 kts 303°
2026-05-08 10:10 21.10069 -87.14813 3012 ft 230 kts 303°
2026-05-08 10:11 21.10960 -87.16248 3024 ft 233 kts 303°
2026-05-08 10:11 21.11848 -87.17678 3035 ft 233 kts 303°
2026-05-08 10:11 21.12752 -87.19129 3046 ft 233 kts 305°
2026-05-08 10:11 21.13949 -87.20279 3021 ft 232 kts 339°
2026-05-08 10:12 21.15496 -87.20461 2997 ft 222 kts 21°
2026-05-08 10:12 21.16788 -87.19664 3053 ft 213 kts 47°
2026-05-08 10:12 21.17857 -87.18568 3079 ft 212 kts 48°
2026-05-08 10:12 21.18899 -87.17602 2927 ft 207 kts 43°
2026-05-08 10:13 21.20010 -87.16731 3033 ft 189 kts 40°
2026-05-08 10:13 21.21074 -87.15911 3047 ft 187 kts 49°
2026-05-08 10:13 21.21544 -87.15158 2986 ft 183 kts 77°
2026-05-08 10:13 21.21485 -87.13445 3028 ft 174 kts 111°
2026-05-08 10:14 21.20919 -87.12306 3020 ft 174 kts 124°
2026-05-08 10:14 21.20228 -87.11241 2986 ft 172 kts 127°
2026-05-08 10:14 21.19519 -87.10207 2990 ft 169 kts 127°
2026-05-08 10:14 21.19066 -87.09552 2998 ft 156 kts 127°
2026-05-08 10:15 21.18436 -87.08644 2969 ft 150 kts 127°
2026-05-08 10:15 21.17818 -87.07753 2969 ft 151 kts 127°
2026-05-08 10:15 21.17188 -87.06847 2971 ft 152 kts 127°
2026-05-08 10:15 21.16558 -87.05933 2972 ft 153 kts 126°